Flag for Romania Weather past 2 weeks in Târgu Mureş, Romania

Now
66 °F

Broken clouds.


Feels Like: 66 °F
Forecast: 48 / 58 °F
Wind: 2 mph from North

Location: Tirgu Mures Airport

Current Time: Sep 22, 2014 at 12:21:29 PM

Latest Report: Sep 22, 2014 at 12:00 PM


Visibility: N/A

Pressure: 29.77 "Hg

Humidity: 83%

Dew point: 61 °F

Location of Târgu MureşLocation

Historic Weather in Târgu Mureş — Graph

°F

Târgu Mureş temperature yesterday

Maximum temperature yesterday: 75 °F (at 2:00 PM)
Minimum temperature yesterday: 57 °F (at 4:00 AM)
Average temperature yesterday: 64 °F

Past Weeks' High & Low Weather Summary

 TemperatureHumidityPressure
High84 °F (Sep 11, 2:30 PM)100% (Sep 8, 2:00 AM)30.27 "Hg (Sep 8, 2:00 AM)
Low39 °F (Sep 18, 7:30 AM)23% (Sep 12, 4:00 PM)29.77 "Hg (Sep 22, 11:00 AM)
Average65 °F63%30.04 "Hg
* Reported Sep 7 11:00 AM — Sep 22 11:00 AM, Târgu Mureş, Weather by CustomWeather, © 2014

Note: Actual official high and low records may vary slightly from our data, if they occured in-between our weather recording intervals... More about our weather records

Advertising

Târgu Mureş weather history for previous 24 hours

 ConditionsComfort  
Time TempWeatherWind HumidityBarometerVisibility
11:00 AM
Sep 22
64 °FMore clouds than sun.5 mph88%29.77 "HgN/A
10:30 AM63 °FMore clouds than sun.7 mph94%29.80 "HgN/A
10:00 AM61 °FMore clouds than sun.5 mph100%29.80 "Hg5 mi
9:30 AM61 °FLow clouds.5 mph100%29.80 "Hg4 mi
9:00 AM59 °FLow clouds.5 mph100%29.80 "Hg4 mi
8:30 AM57 °FFog.5 mph100%29.80 "Hg3 mi
8:00 AM57 °FFog.2 mph100%29.80 "Hg3 mi
7:30 AM57 °FFog.5 mph100%29.80 "Hg2 mi
7:00 AM55 °FFog.5 mph100%29.80 "Hg2 mi
6:30 AM55 °FFog.5 mph100%29.80 "Hg1 mi
6:00 AM57 °FFog.5 mph100%29.83 "Hg0 mi
5:30 AM55 °FFog.2 mph100%29.83 "Hg0 mi
5:00 AM55 °FFog.5 mph100%29.83 "Hg0 mi
4:00 AM57 °FFog.5 mph100%29.83 "Hg0 mi
3:00 AM55 °FFog.5 mph100%29.83 "Hg1 mi
2:00 AM59 °FPassing clouds.No wind94%29.86 "Hg4 mi
1:00 AM59 °FFog.2 mph100%29.86 "Hg3 mi
12:00 AM61 °FThunderstorms. Fog.9 mph100%29.89 "Hg2 mi
11:00 PM
Sep 21
61 °FSprinkles. Fog.5 mph100%29.86 "Hg2 mi
10:00 PM61 °FFog.No wind100%29.89 "Hg3 mi
9:00 PM63 °FThunderstorms. Partly cloudy.5 mph94%29.89 "Hg5 mi
8:30 PM63 °FThunderstorms. Partly cloudy.5 mph94%29.86 "HgN/A
8:00 PM63 °FThunderstorms. Broken clouds.2 mph100%29.86 "Hg3 mi
7:30 PM64 °FThunderstorms. Broken clouds.7 mph94%29.86 "HgN/A
7:00 PM64 °FThunderstorms. Broken clouds.5 mph88%29.86 "Hg5 mi
6:30 PM66 °FSprinkles. Broken clouds.5 mph83%29.86 "HgN/A
6:00 PM68 °FScattered clouds.7 mph83%29.86 "HgN/A
5:30 PM66 °FSprinkles. Scattered clouds.9 mph88%29.86 "HgN/A
5:00 PM66 °FLight rain. Scattered clouds.12 mph88%29.86 "HgN/A
4:30 PM68 °FScattered clouds.12 mph73%29.86 "HgN/A
4:00 PM70 °FScattered clouds.14 mph73%29.86 "HgN/A
3:30 PM70 °FBroken clouds.14 mph73%29.89 "HgN/A
3:00 PM72 °FThundershowers. Broken clouds.12 mph69%29.89 "HgN/A
2:30 PM75 °FScattered clouds.5 mph57%29.89 "HgN/A
2:00 PM75 °FScattered clouds.9 mph61%29.89 "HgN/A
1:30 PM73 °FScattered clouds.5 mph65%29.92 "HgN/A
1:00 PM72 °FScattered clouds.5 mph69%29.92 "HgN/A
12:30 PM70 °FScattered clouds.5 mph73%29.92 "HgN/A
12:00 PM70 °FScattered clouds.2 mph73%29.92 "HgN/A
Weather by CustomWeather, © 2014

See weather overviewHow to use our weather pages